Stündliche Wetter Ablazino

Heute, 23 Juni, Mittwoch

Zeit Temperatur Niederschläge Wind Luftdruck Luftfeuchtigkeit
00:00 +21°C° 0 mm 2 m/S 745 mmHg 75%
01:00 +21°C° 0 mm 2 m/S 745 mmHg 77%
02:00 +21°C° 0 mm 2 m/S 745 mmHg 79%
03:00 +21°C° 0 mm 2 m/S 745 mmHg 78%
04:00 +23°C° 0 mm 2 m/S 745 mmHg 77%
05:00 +24°C° 0 mm 2 m/S 746 mmHg 76%
06:00 +26°C° 0 mm 2 m/S 746 mmHg 68%
07:00 +28°C° 0 mm 2 m/S 746 mmHg 60%
08:00 +30°C° 0 mm 2 m/S 746 mmHg 52%
09:00 +31°C° 0 mm 2 m/S 746 mmHg 46%
10:00 +34°C° 0 mm 2 m/S 746 mmHg 41%
11:00 +35°C° 0 mm 2 m/S 746 mmHg 36%
12:00 +36°C° 0 mm 3 m/S 746 mmHg 34%
13:00 +36°C° 0 mm 3 m/S 746 mmHg 32%
14:00 +37°C° 0 mm 3 m/S 745 mmHg 30%
15:00 +36°C° 0 mm 3 m/S 745 mmHg 33%
16:00 +36°C° 0 mm 3 m/S 745 mmHg 35%
17:00 +35°C° 0 mm 3 m/S 745 mmHg 38%
18:00 +33°C° 0 mm 3 m/S 745 mmHg 47%
19:00 +30°C° 0 mm 2 m/S 745 mmHg 56%
20:00 +27°C° 0 mm 2 m/S 745 mmHg 65%
21:00 +26°C° 0 mm 2 m/S 745 mmHg 66%
22:00 +25°C° 0 mm 2 m/S 745 mmHg 66%
23:00 +24°C° 0 mm 2 m/S 745 mmHg 67%

Morgen, 24 Juni, Donnerstag

Zeit Temperatur Niederschläge Wind Luftdruck Luftfeuchtigkeit
00:00 +24°C° 0 mm 2 m/S 745 mmHg 68%
01:00 +23°C° 0 mm 2 m/S 745 mmHg 70%
02:00 +21°C° 0 mm 2 m/S 745 mmHg 71%
03:00 +23°C° 0 mm 2 m/S 745 mmHg 72%
04:00 +23°C° 0 mm 2 m/S 745 mmHg 72%
05:00 +24°C° 0 mm 2 m/S 744 mmHg 72%
06:00 +26°C° 0 mm 2 m/S 745 mmHg 65%
07:00 +28°C° 0 mm 3 m/S 745 mmHg 58%
08:00 +30°C° 0 mm 3 m/S 745 mmHg 51%
09:00 +33°C° 0 mm 3 m/S 745 mmHg 46%
10:00 +34°C° 0 mm 4 m/S 745 mmHg 41%
11:00 +35°C° 0 mm 4 m/S 744 mmHg 36%
12:00 +36°C° 0 mm 4 m/S 744 mmHg 35%
13:00 +36°C° 0 mm 4 m/S 744 mmHg 33%
14:00 +36°C° 0 mm 4 m/S 744 mmHg 31%
15:00 +36°C° 0 mm 3 m/S 743 mmHg 34%
16:00 +36°C° 0 mm 3 m/S 743 mmHg 36%
17:00 +35°C° 0 mm 2 m/S 743 mmHg 38%
18:00 +30°C° 0.2 mm 2 m/S 743 mmHg 52%
19:00 +26°C° 0.2 mm 3 m/S 743 mmHg 67%
20:00 +21°C° 0.2 mm 3 m/S 743 mmHg 81%
21:00 +20°C° 0.3 mm 3 m/S 743 mmHg 85%
22:00 +19°C° 0.3 mm 2 m/S 743 mmHg 89%
23:00 +18°C° 0.3 mm 2 m/S 744 mmHg 93%

übermorgen, 25 Juni, Freitag

Zeit Temperatur Niederschläge Wind Luftdruck Luftfeuchtigkeit
00:00 +19°C° 0.1 mm 1 m/S 743 mmHg 94%
01:00 +19°C° 0.1 mm 1 m/S 743 mmHg 95%
02:00 +17°C° 0.1 mm 0 m/S 743 mmHg 96%
03:00 +19°C° 0 mm 1 m/S 743 mmHg 95%
04:00 +19°C° 0 mm 2 m/S 743 mmHg 94%
05:00 +20°C° 0 mm 2 m/S 743 mmHg 93%
06:00 +21°C° 0 mm 2 m/S 743 mmHg 83%
07:00 +24°C° 0 mm 2 m/S 743 mmHg 73%
08:00 +26°C° 0 mm 2 m/S 743 mmHg 63%
09:00 +27°C° 0 mm 2 m/S 743 mmHg 57%
10:00 +29°C° 0 mm 2 m/S 743 mmHg 52%
11:00 +30°C° 0 mm 2 m/S 743 mmHg 46%
12:00 +31°C° 0 mm 2 m/S 743 mmHg 44%
13:00 +32°C° 0 mm 2 m/S 743 mmHg 41%
14:00 +33°C° 0 mm 1 m/S 743 mmHg 39%
15:00 +33°C° 0 mm 1 m/S 742 mmHg 39%
16:00 +32°C° 0 mm 1 m/S 741 mmHg 40%
17:00 +32°C° 0 mm 1 m/S 741 mmHg 41%
18:00 +29°C° 0.2 mm 2 m/S 741 mmHg 54%
19:00 +26°C° 0.2 mm 3 m/S 741 mmHg 68%
20:00 +22°C° 0.2 mm 4 m/S 742 mmHg 82%
21:00 +21°C° 0.4 mm 3 m/S 742 mmHg 87%
22:00 +19°C° 0.4 mm 2 m/S 741 mmHg 91%
23:00 +18°C° 0.4 mm 2 m/S 741 mmHg 96%

26 Juni, Samstag

Zeit Temperatur Niederschläge Wind Luftdruck Luftfeuchtigkeit
00:00 +19°C° 0 mm 1 m/S 741 mmHg 96%
01:00 +19°C° 0 mm 1 m/S 741 mmHg 96%
02:00 +18°C° 0 mm 1 m/S 741 mmHg 97%
03:00 +19°C° 0 mm 1 m/S 741 mmHg 95%
04:00 +20°C° 0 mm 1 m/S 741 mmHg 94%
05:00 +19°C° 0 mm 2 m/S 741 mmHg 92%
06:00 +21°C° 0 mm 2 m/S 741 mmHg 83%
07:00 +24°C° 0 mm 2 m/S 741 mmHg 73%
08:00 +26°C° 0 mm 3 m/S 741 mmHg 63%
09:00 +28°C° 0 mm 3 m/S 741 mmHg 58%
10:00 +29°C° 0 mm 3 m/S 741 mmHg 52%
11:00 +31°C° 0 mm 3 m/S 740 mmHg 47%
12:00 +31°C° 0 mm 3 m/S 740 mmHg 44%
13:00 +33°C° 0 mm 3 m/S 740 mmHg 42%
14:00 +34°C° 0 mm 3 m/S 740 mmHg 40%
15:00 +33°C° 0 mm 3 m/S 740 mmHg 45%
16:00 +31°C° 0 mm 3 m/S 739 mmHg 51%
17:00 +30°C° 0 mm 2 m/S 739 mmHg 56%
18:00 +28°C° 0.1 mm 2 m/S 739 mmHg 62%
19:00 +27°C° 0.1 mm 2 m/S 739 mmHg 68%
20:00 +26°C° 0.1 mm 2 m/S 739 mmHg 74%
21:00 +24°C° 1.2 mm 2 m/S 739 mmHg 80%
22:00 +23°C° 1.2 mm 2 m/S 740 mmHg 87%
23:00 +20°C° 1.2 mm 3 m/S 740 mmHg 93%

27 Juni, Sonntag

Zeit Temperatur Niederschläge Wind Luftdruck Luftfeuchtigkeit
00:00 +20°C° 0.1 mm 2 m/S 739 mmHg 93%
01:00 +20°C° 0.1 mm 2 m/S 739 mmHg 93%
02:00 +19°C° 0.1 mm 2 m/S 739 mmHg 93%
03:00 +21°C° 0 mm 1 m/S 739 mmHg 92%
04:00 +21°C° 0 mm 1 m/S 740 mmHg 91%
05:00 +21°C° 0 mm 1 m/S 740 mmHg 90%
06:00 +23°C° 0 mm 1 m/S 740 mmHg 80%
07:00 +25°C° 0 mm 1 m/S 740 mmHg 70%
08:00 +27°C° 0 mm 2 m/S 740 mmHg 61%
09:00 +28°C° 0 mm 2 m/S 740 mmHg 56%
10:00 +30°C° 0 mm 1 m/S 740 mmHg 51%
11:00 +31°C° 0 mm 1 m/S 740 mmHg 46%
12:00 +32°C° 0 mm 2 m/S 740 mmHg 44%
13:00 +32°C° 0 mm 2 m/S 740 mmHg 42%
14:00 +34°C° 0 mm 2 m/S 740 mmHg 40%
15:00 +34°C° 0 mm 2 m/S 740 mmHg 42%
16:00 +32°C° 0 mm 2 m/S 739 mmHg 44%
17:00 +32°C° 0 mm 2 m/S 739 mmHg 47%
18:00 +30°C° 0 mm 2 m/S 739 mmHg 54%
19:00 +28°C° 0 mm 2 m/S 739 mmHg 62%
20:00 +26°C° 0 mm 2 m/S 739 mmHg 70%
21:00 +25°C° 0.1 mm 2 m/S 739 mmHg 74%
22:00 +24°C° 0.1 mm 1 m/S 739 mmHg 78%
23:00 +23°C° 0.1 mm 1 m/S 739 mmHg 82%

28 Juni, Montag

Zeit Temperatur Niederschläge Wind Luftdruck Luftfeuchtigkeit
00:00 +22°C° 0.4 mm 1 m/S 739 mmHg 86%
01:00 +22°C° 0.4 mm 1 m/S 739 mmHg 89%
02:00 +21°C° 0.4 mm 1 m/S 739 mmHg 92%
03:00 +21°C° 0 mm 1 m/S 739 mmHg 91%
04:00 +22°C° 0 mm 1 m/S 739 mmHg 90%
05:00 +23°C° 0 mm 1 m/S 739 mmHg 88%
06:00 +24°C° 0 mm 1 m/S 739 mmHg 78%
07:00 +26°C° 0 mm 2 m/S 740 mmHg 68%
08:00 +28°C° 0 mm 2 m/S 740 mmHg 58%
09:00 +29°C° 0 mm 2 m/S 740 mmHg 53%
10:00 +30°C° 0 mm 2 m/S 740 mmHg 49%
11:00 +32°C° 0 mm 2 m/S 740 mmHg 44%
12:00 +32°C° 0 mm 2 m/S 740 mmHg 43%
13:00 +34°C° 0 mm 2 m/S 740 mmHg 41%
14:00 +34°C° 0 mm 2 m/S 739 mmHg 40%
15:00 +34°C° 0 mm 2 m/S 739 mmHg 42%
16:00 +32°C° 0 mm 2 m/S 739 mmHg 45%
17:00 +33°C° 0 mm 3 m/S 739 mmHg 47%
18:00 +30°C° 0 mm 2 m/S 739 mmHg 56%
19:00 +28°C° 0 mm 2 m/S 739 mmHg 65%
20:00 +26°C° 0 mm 1 m/S 739 mmHg 73%
21:00 +24°C° 0.3 mm 1 m/S 739 mmHg 80%
22:00 +21°C° 0.3 mm 2 m/S 739 mmHg 86%
23:00 +20°C° 0.3 mm 2 m/S 739 mmHg 93%
Mehr zeigen

Wir brauchen deine Erlaubnis

Meteoprog und unser Service Anbieter werden persönliche Daten aufbewahren, so wie Cookies, Geräte Bezeichnung oder ähnliche Technologien von deinem Gerät und Prozess, so wie Persönliche Daten Inhalte und Werbungen, genauso wie social Media und den Verkehr zu analysieren.

  • Aufbewahrung und/oder Zugang zu deiner Geräte Informationen.

    Cookies, Geräte Bezeichnung oder andere Informationen, können aufbewahrt oder Zugang zu deinem Gerät erhalten, für den Grund, der oben angegeben wird.

  • Personalisierte Werbung und Inhalte, Messungen, Einblick in das Publikum und Produkt Entwicklung.

    Werbungen und Inhalte können personalisiert werden, basierend auf ein Profil. Mehr Daten können besser personalisierte Werbungen und Inhalte hinzufügen. Werbung und Inhalte können gezeigt und gemessen werden. Einblicke über das Publikum, welche die Werbung gesehen haben und den Inhalt, können abgeleitet werden. So wie Daten können genutzt werden, um es zu verbessern oder die Benutzer Erfahrung zu verbessern das System und die Software.

Wenn du “Ich stimme zu” klickst, erlaubst du uns, die Cookies zu benutzen die Geräte Bezeichnung, den Web oder ähnliche Technologien zu benutzen. Deine Settings, können in deinem Gerät bei deinem Browser geändert werden.

Für den bestimmten Zweck, berechtigten Interessen beruhen darauf, mehr als auf den Inhalt. Du kannst mehr darüber in unseren Privaten und Cookie Politik lesen.